Regional Weather Roundup
Issued by NWS Charleston, SC

Current Version | Previous Version | Text Only | Print | Product List | Glossary Off
Versions: 1 2 3 4 5 6 7 8 9 10 11 12 13 14 15 16 17 18 19 20 21 22 23 24 25 26 27 28 29 30 31 32 33 34 35 36 37 38 39 40 41 42 43 44 45 46 47 48 49 50

000
ASUS42 KCHS 260525
RWRCHS

REGIONAL WEATHER ROUNDUP
NATIONAL WEATHER SERVICE CHARLESTON SC
1200 AM EST WED NOV 26 2014

NOTE: "FAIR" INDICATES FEW OR NO CLOUDS BELOW 12,000 FEET WITH NO
SIGNIFICANT WEATHER AND/OR OBSTRUCTIONS TO VISIBILITY.

NOT ALL STATIONS ARE QUALITY CONTROLLED BY THE NATIONAL
WEATHER SERVICE. USE DATA WITH CAUTION...ESPECIALLY
DEWPOINT OBSERVATIONS.

SCZ027-030-031-034>040-042>050-260600-
...SOUTHEAST SOUTH CAROLINA...

CITY           SKY/WX    TMP DP  RH WIND       PRES   REMARKS
N CHARLESTON   LGT RAIN  62  61  96 N10       29.86F FOG
WATERFRONT PRK   N/A     63 N/A N/A NW5G12      N/A
MOUNT PLEASANT NOT AVBL
JOHNS ISLAND   HVY RAIN  63  63 100 N8        29.85F
PINOPOLIS        N/A     61  61 100 N9        29.82F
MONCKS CORNER  HVY RAIN  63  63 100 CALM      29.87F
SUMMERVILLE    DRIZZLE   59  59 100 N7        29.87F
BEAUFORT MCAS  LGT RAIN  60  58  92 N10       29.85F FOG
BEAUFORT ARPT  RAIN      59  59 100 N9        29.84F
HILTON HEAD IS LGT RAIN  59  59 100 N8        29.86F
WALTERBORO     DRIZZLE   59 N/A N/A N6        29.88F
ALLENDALE      LGT RAIN  57  55  94 VRB5      29.90F

...SOUTHERN MIDLANDS AND PEE DEE...

CITY           SKY/WX    TMP DP  RH WIND       PRES   REMARKS
GEORGETOWN     NOT AVBL
KINGSTREE      NOT AVBL
ORANGEBURG     LGT RAIN  58  56  93 N6        29.92F FOG
BARNWELL       DRIZZLE   54  54 100 NW12      29.94F
AIKEN          RAIN      48  48 100 NW8       30.00F
MANNING        NOT AVBL
COLUMBIA       RAIN      56  54  93 N7        29.93F FOG
SUMTER         LGT RAIN  59  55  88 NW6       29.92F
FLORENCE       LGT RAIN  59  57  93 N13       29.91F FOG
MYRTLE BEACH   CLOUDY    63  61  94 NE17      29.87F
N MYRTLE BEACH CLOUDY    64  62  93 E12       29.89F

$$

GAZ063-065-086>088-099>101-113>116-118-119-134>141-150-260600-
...SOUTHEAST GEORGIA...

CITY           SKY/WX    TMP DP  RH WIND       PRES   REMARKS
SAVANNAH ARPT  LGT RAIN  61  57  87 N9        29.88F FOG
HUNTER AAF     RAIN      59  59 100 N8        29.85F
FORT STEWART   RAIN      57  55  94 NW10      29.89S FOG
STATESBORO     NOT AVBL
SYLVANIA       DRIZZLE   54  53  97 NW14      29.94S
CLAXTON        DRIZZLE   54  54 100 NW17      29.93F

...CSRA...CENTRAL AND FAR SOUTHEAST GEORGIA...

CITY           SKY/WX    TMP DP  RH WIND       PRES   REMARKS
THOMSON        CLOUDY    48  48 100 NW7       30.06S
AUGUSTA-BUSH   LGT RAIN  49  46  90 NW20      29.99F
AUGUSTA-DANIEL LGT RAIN  49  46  90 NW13      30.00F
SWAINSBORO     DRIZZLE   50  50 100 NW9       30.01S
VIDALIA        RAIN      48  46  93 NW10G17   29.98F
HAZLEHURST     DRIZZLE   49  49 100 NW8G18    29.97F
ALMA           CLOUDY    49  46  90 NW14G23   29.94F
WAYCROSS       RAIN      54  53  97 NW15      29.93F
JESUP          HVY RAIN  55  55 100 N8        29.90F
BAXLEY         DRIZZLE   50  48  93 N12G22    29.94F
BRUNSWICK      CLOUDY    59  57  94 N5        29.88F
SAINT SIMONS   LGT RAIN  60  59  96 NW7       29.86F FOG

$$

SCZ027-028-034-036>038-045-046-048>050-GAZ119-141-260600-
...LAKE AND SUPPLEMENTAL COASTAL OBSERVATIONS...

STATION/POSITION TIME  TEMP    WIND        PRES    WAVE   SWELL
                       AIR SEA DIR/SP/G            HT/PER HT/PER/DIR
                 (UTC) (F)     (DEG/KT/KT) (MB)    (FT/S) (FT/S/D)
UPR LAKE MARION  NOT AVBL
WINYAH BAY       0500   62      50/ 12     1012.0S
LAKE MURRAY      0500   53     350/  3/  5 1015.2F
ACE BASIN NERRS  0500   59     350/  2     1011.0F
FORT PULASKI     0500   59     330/ 11/ 14 1010.9F
SAPELO ISLAND    0500   60     330/  8     1011.0S

$$

ANZ835-935-AMZ111-154-330-350-352-354-370-450-454-472-260600-
...C-MAN AND BUOY OBSERVATIONS...

STATION/POSITION TIME  TEMP    WIND        PRES    WAVE   SWELL
                       AIR SEA DIR/SP/G            HT/PER HT/PER/DIR
                 (UTC) (F)     (DEG/KT/KT) (MB)    (FT/S) (FT/S/D)
FOLLY BEACH CMAN 0500   62     330/  4/  6 1011.2F
BUOY 41004       0500   73 75  130/ 25/ 31 1010.1F   6/ 9   3/ 9
BUOY 41008       0500   62 64   10/ 16/ 19 1010.5F   4/10   3/110/10
CAPERS NEARSHORE 0400   60      40/ 14/ 16   N/A
FRIPP NEARSHORE  NOT AVBL


STATION/POSITION TIME  TEMP    WIND        PRES    WAVE   SWELL
                       AIR SEA DIR/SP/G            HT/PER HT/PER/DIR
                 (UTC) (F)     (DEG/KT/KT) (MB)    (FT/S) (FT/S/D)
5E ST. MARYS GA  0500      63                N/A     4/ 9
FRYING PAN BUOY  0500   71 71  140/ 16/ 19 1014.5F   4/ 9   3/120/ 9
BUOY 41025       0500   69     140/ 12/ 14 1016.7F   5/ 8   5/140/ 8
CAPE LOOKOUT NC  0500   61      50/ 12/ 13 1015.8F
BUOY 41002       0445   75 74  180/ 17/ 19 1017.5F   6/ 7   3/130/ 9
BUOY 41010       0500   79 78  170/ 19/ 23 1013.4F   6/ 6   3/110/10
ST AUGUSTINE FL  0500   67     170/ 16/ 17 1010.4F


$$


USA.gov is the U.S. government's official web portal to all federal, state and local government web resources and services.